Regional Weather Roundup
Issued by NWS Mt. Holly, NJ

Home | Current Version | Previous Version | Text Only | Print | Product List | Glossary On
Versions: 1 2 3 4 5 6 7 8 9 10 11 12 13 14 15 16 17 18 19 20 21 22 23 24 25 26 27 28 29 30 31 32 33 34 35 36 37 38 39 40 41 42 43 44 45 46 47 48 49 50
000
ASUS41 KPHI 061511
RWRPHI

REGIONAL WEATHER ROUNDUP
NATIONAL WEATHER SERVICE MOUNT HOLLY NJ
1100 AM EDT WED MAY 06 2015

NOTE:  "FAIR" INDICATES FEW OR NO CLOUDS BELOW 12,000 FEET WITH NO
SIGNIFICANT WEATHER AND/OR OBSTRUCTIONS TO VISIBILITY.

 * = STATION DOES NOT REPORT PRECIPITATION (E.G. RAIN, SNOW, ETC.)
        OR FOG.

NJZ015>026-061600-
SOUTHERN NEW JERSEY

CITY           SKY/WX    TMP DP  RH WIND       PRES   REMARKS
POMONA         PTSUNNY   71  50  47 NE16G25   30.26R
RIO GRANDE*    PTSUNNY   70  50  49 NE15G25   30.25R
MILLVILLE      SUNNY     74  54  49 E13       30.24S
WRIGHTSTOWN    MOSUNNY   69  43  38 E15       30.24F
MOUNT HOLLY    MOSUNNY   68  52  56 VRB5      30.27S
TRENTON        PTSUNNY   71  40  32 E12G23    30.28S

$$
NJZ001>014-061600-
NORTHERN NEW JERSEY

CITY           SKY/WX    TMP DP  RH WIND       PRES   REMARKS
SUSSEX         CLOUDY    60  48  64 CALM      30.33S
ANDOVER*         N/A     57  52  83 CALM      30.32S
MORRISTOWN     CLOUDY    64  45  48 NE9G15    30.31S
NEWARK         LGT RAIN  68  41  37 N12       30.29S
TETERBORO      CLOUDY    66  41  40 NE6       30.29F
CALDWELL       LGT RAIN  63  45  51 NE6       30.31S
SOMERVILLE     CLOUDY    66  45  46 E6        30.28R
ALLAIRE*       PTSUNNY   66  39  37 NE12G21   30.28S
TOMS RIVER*    PTSUNNY   66  41  39 NE16G22   30.29R

$$
PAZ043-044-047-054-055-060>062-066>071-061600-
EASTERN PENNSYLVANIA

CITY           SKY/WX    TMP DP  RH WIND       PRES   REMARKS
PHILADELPHIA   CLOUDY    66  47  50 NE13      30.28R
NORTH PHILA    MOSUNNY   71  41  33 E14G23    30.29S
BLUE BELL      PTSUNNY   70  46  43 E10G16    30.28R
DOYLESTOWN     PTSUNNY   67  44  43 MISG      30.28S
QUAKERTOWN*    PTSUNNY   66  46  48 E9G18     30.30F
POTTSTOWN      CLOUDY    67  47  48 E9        30.29S
LANCASTER      PTSUNNY   65  54  67 E8        30.27S
COATESVILLE    MOSUNNY   64  54  68 NE5       30.28S
READING        CLOUDY    68  47  46 VRB7      30.28S
ALLENTOWN      CLOUDY    62  49  62 NE12      30.31R
MOUNT POCONO   RAIN      50  46  86 E10       30.34R FOG
HAZLETON       DRIZZLE   54  50  87 CALM      30.35S
WILKES BARRE   CLOUDY    56  51  84 VRB6      30.31S

$$
DEZALL-MDZ008-012-015-019-020-061600-
DELAWARE AND EASTERN MARYLAND

CITY           SKY/WX    TMP DP  RH WIND       PRES   REMARKS
WILMINGTON     MOSUNNY   73  47  39 NE18G24   30.26S
DOVER          MOSUNNY   72  66  81 N8        30.21S
GEORGETOWN     SUNNY     76  60  57 S7        30.23S
EASTON         PTSUNNY   73  66  78 S3        30.26F
PATUXENT       PTSUNNY   69  59  70 VRB3      30.23S
OCEAN CITY     SUNNY     69  58  67 S8        30.24S
WALLOPS ISLAND PTSUNNY   73  59  61 VRB5      30.24F
CAMBRIDGE      MOSUNNY   73  59  60 CALM      30.23S
SALISBURY      SUNNY     75  58  55 SW5       30.22F

$$
PAZ001-021-NYZ056-072-MDZ011-DCZ001-061600-
OTHER NEARBY LOCATIONS

CITY           SKY/WX    TMP DP  RH WIND       PRES   REMARKS
HARRISBURG     PTSUNNY   63  53  70 NE8       30.29R
STATE COLLEGE  CLOUDY    57  57 100 NE8       30.27F FOG
WILLIAMSPORT   LGT RAIN  58  55  90 E7        30.28F
BINGHAMTON     CLOUDY    56  47  71 S6        30.32R
NEW YORK CITY  CLOUDY    68  40  35 NE8       30.32F
BALTIMORE      MOSUNNY   73  61  65 NE10G18   30.22S
WASHINGTON DC  MOSUNNY   78  64  61 NE9       30.22S

$$



USA.gov is the U.S. government's official web portal to all federal, state and local government web resources and services.